| time (UTC) | temp F | wind direction | speed MPH | gust MPH | rain 1hr in | rain 24hr in | rain mn in | humidity % | barometer mb |
| 20260508124720 | 50 | 358 | 2.0 | 3.0 | 0.00 | 0.00 | 0.00 | 58 | 1012.1 |
| 20260508124216 | 49 | 49 | 0.0 | 3.0 | 0.00 | 0.00 | 0.00 | 64 | 1012.0 |
| 20260508123715 | 48 | 147 | 1.0 | 2.0 | 0.00 | 0.00 | 0.00 | 67 | 1012.2 |
| 20260508123212 | 47 | 129 | 0.0 | 2.0 | 0.00 | 0.00 | 0.00 | 69 | 1012.1 |
| 20260508122708 | 47 | 93 | 1.0 | 3.0 | 0.00 | 0.00 | 0.00 | 71 | 1012.1 |
| 20260508122205 | 46 | 114 | 0.0 | 2.0 | 0.00 | 0.00 | 0.00 | 75 | 1012.0 |
| 20260508121703 | 45 | 112 | 2.0 | 3.0 | 0.00 | 0.00 | 0.00 | 77 | 1011.9 |
| 20260508121201 | 43 | 94 | 0.0 | 2.0 | 0.00 | 0.00 | 0.00 | 79 | 1012.0 |
| 20260508120658 | 43 | 93 | 0.0 | 2.0 | 0.00 | 0.00 | 0.00 | 80 | 1011.8 |
| 20260508120156 | 42 | 128 | 2.0 | 2.0 | 0.00 | 0.00 | 0.00 | 80 | 1011.5 |
| 20260508115654 | 42 | 116 | 2.0 | 2.0 | 0.00 | 0.00 | 0.00 | 80 | 1011.8 |
| 20260508115150 | 41 | 78 | 0.0 | 3.0 | 0.00 | 0.00 | 0.00 | 80 | 1011.6 |
| 20260508114647 | 41 | 102 | 1.0 | 3.0 | 0.00 | 0.00 | 0.00 | 81 | 1011.5 |
| 20260508114144 | 41 | 89 | 0.0 | 2.0 | 0.00 | 0.00 | 0.00 | 81 | 1011.7 |
| 20260508113641 | 40 | 100 | 1.0 | 2.0 | 0.00 | 0.00 | 0.00 | 82 | 1011.3 |
| 20260508113139 | 39 | 113 | 0.0 | 2.0 | 0.00 | 0.00 | 0.00 | 83 | 1011.3 |
| 20260508112635 | 39 | 77 | 0.0 | 2.0 | 0.00 | 0.00 | 0.00 | 84 | 1011.6 |
| 20260508112132 | 39 | 112 | 2.0 | 2.0 | 0.00 | 0.00 | 0.00 | 84 | 1011.5 |
| 20260508111628 | 39 | 92 | 1.0 | 2.0 | 0.00 | 0.00 | 0.00 | 85 | 1011.4 |
| 20260508111125 | 38 | 95 | 1.0 | 2.0 | 0.00 | 0.00 | 0.00 | 85 | 1011.3 |
| 20260508110618 | 38 | 89 | 1.0 | 2.0 | 0.00 | 0.00 | 0.00 | 86 | 1011.2 |
| 20260508110113 | 38 | 106 | 0.0 | 2.0 | 0.00 | 0.00 | 0.00 | 86 | 1011.3 |
| 20260508105608 | 38 | 93 | 1.0 | 2.0 | 0.00 | 0.00 | 0.00 | 86 | 1011.3 |
| 20260508105106 | 37 | 104 | 2.0 | 2.0 | 0.00 | 0.00 | 0.00 | 86 | 1011.2 |
| 20260508104603 | 37 | 104 | 2.0 | 2.0 | 0.00 | 0.00 | 0.00 | 86 | 1011.2 |
| 20260508104100 | 37 | 102 | 1.0 | 2.0 | 0.00 | 0.00 | 0.00 | 86 | 1011.2 |
| 20260508103557 | 37 | 104 | 2.0 | 2.0 | 0.00 | 0.00 | 0.00 | 86 | 1011.2 |
| 20260508103054 | 37 | 105 | 1.0 | 2.0 | 0.00 | 0.00 | 0.00 | 86 | 1011.2 |
| 20260508102552 | 37 | 101 | 2.0 | 2.0 | 0.00 | 0.00 | 0.00 | 86 | 1011.2 |
| 20260508102049 | 37 | 82 | 1.0 | 2.0 | 0.00 | 0.00 | 0.00 | 85 | 1011.1 |
| 20260508101547 | 37 | 106 | 1.0 | 3.0 | 0.00 | 0.00 | 0.00 | 86 | 1011.2 |
| 20260508101044 | 37 | 105 | 1.0 | 2.0 | 0.00 | 0.00 | 0.00 | 86 | 1011.4 |
| 20260508100542 | 37 | 108 | 2.0 | 3.0 | 0.00 | 0.00 | 0.00 | 86 | 1011.2 |
| 20260508100038 | 37 | 116 | 2.0 | 3.0 | 0.00 | 0.00 | 0.00 | 86 | 1011.4 |
| 20260508095536 | 37 | 107 | 2.0 | 3.0 | 0.00 | 0.00 | 0.00 | 86 | 1011.2 |
| 20260508095032 | 37 | 94 | 1.0 | 3.0 | 0.00 | 0.00 | 0.00 | 86 | 1011.3 |
| 20260508094529 | 37 | 85 | 1.0 | 3.0 | 0.00 | 0.00 | 0.00 | 86 | 1011.4 |
| 20260508094026 | 37 | 60 | 0.0 | 3.0 | 0.00 | 0.00 | 0.00 | 86 | 1011.3 |
| 20260508093523 | 37 | 116 | 1.0 | 2.0 | 0.00 | 0.00 | 0.00 | 86 | 1011.3 |
| 20260508093021 | 37 | 55 | 0.0 | 2.0 | 0.00 | 0.00 | 0.00 | 86 | 1011.5 |
| 20260508092518 | 37 | 57 | 0.0 | 3.0 | 0.00 | 0.00 | 0.00 | 87 | 1011.3 |
| 20260508092017 | 37 | 114 | 3.0 | 3.0 | 0.00 | 0.00 | 0.00 | 87 | 1011.4 |
| 20260508091514 | 37 | 124 | 2.0 | 3.0 | 0.00 | 0.00 | 0.00 | 87 | 1011.5 |
| 20260508091010 | 37 | 122 | 2.0 | 3.0 | 0.00 | 0.00 | 0.00 | 86 | 1011.5 |
| 20260508090509 | 37 | 103 | 1.0 | 2.0 | 0.00 | 0.00 | 0.00 | 86 | 1011.5 |
| 20260508090005 | 37 | 101 | 1.0 | 2.0 | 0.00 | 0.00 | 0.00 | 85 | 1011.5 |
| 20260508085501 | 37 | 120 | 2.0 | 2.0 | 0.00 | 0.00 | 0.00 | 85 | 1011.5 |
| 20260508084958 | 38 | 74 | 1.0 | 2.0 | 0.00 | 0.00 | 0.00 | 84 | 1011.6 |
| 20260508084455 | 38 | 95 | 2.0 | 3.0 | 0.00 | 0.00 | 0.00 | 84 | 1011.5 |
| 20260508083953 | 38 | 126 | 1.0 | 3.0 | 0.00 | 0.00 | 0.00 | 84 | 1011.4 |
| 20260508083449 | 38 | 76 | 2.0 | 3.0 | 0.00 | 0.00 | 0.00 | 84 | 1011.4 |
| 20260508082945 | 38 | 103 | 0.0 | 3.0 | 0.00 | 0.00 | 0.00 | 84 | 1011.4 |
| 20260508082442 | 38 | 74 | 2.0 | 3.0 | 0.00 | 0.00 | 0.00 | 84 | 1011.6 |
| 20260508081940 | 38 | 70 | 0.0 | 2.0 | 0.00 | 0.00 | 0.00 | 83 | 1011.5 |
| 20260508081436 | 38 | 110 | 1.0 | 2.0 | 0.00 | 0.00 | 0.00 | 83 | 1011.6 |
| 20260508080932 | 38 | 99 | 0.0 | 2.0 | 0.00 | 0.00 | 0.00 | 83 | 1011.6 |
| 20260508080431 | 39 | 92 | 1.0 | 2.0 | 0.00 | 0.00 | 0.00 | 82 | 1011.5 |
| 20260508075927 | 39 | 92 | 1.0 | 2.0 | 0.00 | 0.00 | 0.00 | 82 | 1011.7 |
| 20260508075424 | 39 | 80 | 0.0 | 2.0 | 0.00 | 0.00 | 0.00 | 81 | 1011.5 |
| 20260508074922 | 39 | 103 | 1.0 | 2.0 | 0.00 | 0.00 | 0.00 | 81 | 1011.5 |
| 20260508074419 | 40 | 108 | 2.0 | 2.0 | 0.00 | 0.00 | 0.00 | 81 | 1011.6 |
| 20260508073916 | 40 | 98 | 2.0 | 3.0 | 0.00 | 0.00 | 0.00 | 81 | 1011.5 |
| 20260508073413 | 39 | 85 | 2.0 | 3.0 | 0.00 | 0.00 | 0.00 | 80 | 1011.4 |